Weather History for Madera, CA

Change the Weather History Date:

Monday, December 31, 2012

  Actual Average Record
Temperature  
Mean Temperature 40 °F 44 °F  
Max Temperature 51 °F 52 °F 63 °F (1981)
Min Temperature 28 °F 36 °F 28 °F (2010)
Degree Days  
Heating Degree Days 25    
Month to date heating degree days 526  
Since 1 July heating degree days 894  
Cooling Degree Days 0    
Month to date cooling degree days 0  
Year to date cooling degree days 1737  
Moisture  
Dew Point 33 °F    
Average Humidity 71    
Maximum Humidity 92    
Minimum Humidity 50    
Precipitation  
Precipitation 0.00 in 0.06 in 1.02 in (2004)
Month to date precipitation 2.52 1.70  
Year to date precipitation 10.92 12.02  
Since 1 July precipitation 4.70 4.02  
Snow  
Snow 0.00 in - - ()
Month to date snowfall 0.0  
Since 1 July snowfall 0.0  
Snow Depth 0.00 in    
Sea Level Pressure  
Sea Level Pressure 30.26 in    
Wind  
Wind Speed 3 mph (West)    
Max Wind Speed 10 mph    
Max Gust Speed 13 mph    
Visibility 9 miles    
Events      
T = Trace of Precipitation, MM = Missing Value Source: NWS Daily Summary

Daily Weather History Graph

Daily Weather History Graph

Search for Another Location

Airport:

Trip Planner

Search our weather history database for the weather conditions in past years. The results will help you decide how hot, cold, wet, or windy it might be!

Date:

Astronomy

Dec. 31, 2012 Rise Set
Actual Time 7:13 AM PST 4:54 PM PST
Civil Twilight 6:44 AM PST 5:23 PM PST
Nautical Twilight 6:12 AM PST 5:55 PM PST
Astronomical Twilight 5:40 AM PST 6:27 PM PST
Moon 8:24 PM PST (12/31) 9:02 AM PST (12/31)
Length of Visible Light 10h 38m
Length of Day
9h 40m
Waning Gibbous, 89% of the Moon is Illuminated
Dec 31
Waning Gibbous
Jan 4
Last Quarter
Jan 11
New
Jan 18
First Quarter
Jan 26
Full

Hourly Weather History & Observations

Time (PST) Temp. Windchill Dew Point Humidity Pressure Visibility Wind Dir Wind Speed Gust Speed Precip Events Conditions
12:53 AM 33.1 °F 30.0 °F 30.0 °F 89% 30.18 in 10.0 mi ENE 3.5 mph - N/A   Clear
1:53 AM 32.0 °F - 30.0 °F 92% 30.20 in 7.0 mi Calm Calm - N/A   Clear
2:53 AM 30.0 °F 24.1 °F 28.0 °F 92% 30.22 in 5.0 mi WSW 5.8 mph - N/A   Clear
3:53 AM 30.9 °F - 28.9 °F 92% 30.22 in 7.0 mi Calm Calm - N/A   Clear
4:53 AM 30.9 °F 26.2 °F 28.9 °F 92% 30.23 in 7.0 mi WNW 4.6 mph - N/A   Clear
5:53 AM 30.0 °F 25.2 °F 28.0 °F 92% 30.24 in 10.0 mi NNW 4.6 mph - N/A   Clear
6:53 AM 30.0 °F - 28.0 °F 92% 30.25 in 10.0 mi Calm Calm - N/A   Clear
7:53 AM 32.0 °F 27.5 °F 30.0 °F 92% 30.27 in 10.0 mi West 4.6 mph - N/A   Partly Cloudy
8:53 AM 36.0 °F 33.3 °F 34.0 °F 93% 30.27 in 10.0 mi SSW 3.5 mph - N/A   Scattered Clouds
9:30 AM 37.4 °F - 33.8 °F 87% 30.27 in 10.0 mi Calm Calm - N/A   Mostly Cloudy
9:37 AM 39.2 °F - 35.6 °F 87% 30.28 in 10.0 mi Calm Calm - N/A   Scattered Clouds
9:49 AM 39.2 °F - 33.8 °F 81% 30.29 in 10.0 mi Calm Calm - N/A   Mostly Cloudy
9:53 AM 39.0 °F 36.8 °F 34.0 °F 82% 30.29 in 10.0 mi West 3.5 mph - N/A   Mostly Cloudy
10:53 AM 42.1 °F 37.7 °F 35.1 °F 76% 30.31 in 10.0 mi NW 6.9 mph - N/A   Overcast
11:24 AM 44.6 °F 40.2 °F 35.6 °F 71% 30.30 in 10.0 mi NW 8.1 mph - N/A   Partly Cloudy
11:53 AM 46.0 °F 41.4 °F 36.0 °F 68% 30.30 in 10.0 mi North 9.2 mph - N/A   Clear
12:53 PM 48.9 °F - 37.9 °F 66% 30.25 in 10.0 mi Calm Calm - N/A   Clear
1:53 PM 51.1 °F - 37.9 °F 61% 30.24 in 10.0 mi Variable 4.6 mph - N/A   Clear
2:53 PM 51.1 °F - 35.1 °F 54% 30.24 in 10.0 mi South 5.8 mph - N/A   Clear
3:53 PM 51.1 °F - 33.1 °F 50% 30.25 in 10.0 mi SE 3.5 mph - N/A   Clear
4:53 PM 48.0 °F - 34.0 °F 58% 30.25 in 10.0 mi Calm Calm - N/A   Clear
5:53 PM 44.1 °F - 34.0 °F 68% 30.26 in 10.0 mi Calm Calm - N/A   Clear
6:53 PM 39.0 °F - 34.0 °F 82% 30.27 in 10.0 mi Calm Calm - N/A   Clear
7:53 PM 37.9 °F 35.5 °F 34.0 °F 86% 30.28 in 10.0 mi WNW 3.5 mph - N/A   Clear
8:53 PM 39.0 °F - 35.1 °F 86% 30.29 in 9.0 mi Calm Calm - N/A   Clear
9:53 PM 39.9 °F - 36.0 °F 86% 30.30 in 4.0 mi Calm Calm - N/A   Clear
11:53 PM 37.0 °F 34.5 °F 34.0 °F 89% 30.28 in 3.0 mi SSE 3.5 mph - N/A   Clear